GFSNE_850_thetae_108.txt.gz
Theta_e
324 325 324 322 321 320 320 319 319 318 320 318 319 318 319 318 317 318 317 315 313 312 311 312 313 313 314 314 313 314 315 315 315 315 315 315 316 315
325 324 325 322 321 320 319 321 322 321 319 319 318 319 320 320 318 318 318 318 317 316 317 317 316 315 317 316 316 316 316 316 316 316 317 317 317 316
325 325 324 322 322 321 322 322 320 318 318 318 320 320 320 319 319 319 318 319 319 319 319 317 318 318 316 315 316 317 316 316 317 317 318 318 318 318
325 325 325 323 323 320 320 319 322 318 318 317 316 317 318 319 320 319 319 319 318 318 318 318 318 317 316 317 318 317 317 317 318 318 319 319 320 319
325 324 324 323 323 323 319 319 321 321 321 318 318 317 318 320 319 318 316 316 319 317 316 316 317 318 319 320 321 321 321 321 321 321 321 321 320 321
324 324 323 321 321 321 319 322 321 321 320 318 317 317 317 317 316 317 318 317 316 316 318 320 320 320 320 321 321 321 322 321 319 319 320 319 319 318
322 321 321 322 322 322 323 323 321 320 320 320 319 318 318 319 318 317 316 315 317 320 320 321 320 320 320 319 319 318 320 319 317 316 316 316 316 315
322 322 323 322 322 323 323 321 320 320 320 320 319 318 318 318 317 315 315 317 319 320 318 318 318 317 316 316 316 316 315 314 313 314 312 311 309 306
322 322 323 322 322 321 322 321 320 320 319 319 319 318 317 316 315 315 318 319 320 318 318 317 316 313 312 313 311 310 310 309 309 307 305 303 302 301
321 321 321 320 320 320 320 320 320 319 319 319 319 319 318 318 317 319 318 317 316 317 315 311 310 307 307 305 305 303 303 303 301 300 299 297 296 295
319 319 319 319 319 320 320 319 319 319 319 318 318 318 318 318 317 316 314 313 311 310 310 308 307 304 302 300 299 298 298 297 296 294 293 292 292 291
315 314 316 317 316 315 316 315 314 314 313 312 311 310 311 310 311 310 310 307 308 306 304 303 301 300 298 296 294 293 292 291 290 290 291 290 290 289
304 304 305 307 308 309 308 306 306 305 304 303 303 303 304 303 304 305 303 302 301 301 300 299 296 294 292 291 290 288 288 289 289 289 288 286 285 284
301 301 298 300 303 304 304 304 303 303 301 300 301 300 298 297 296 296 294 295 295 295 295 293 292 291 290 289 288 286 287 288 285 284 282 281 281 281
298 297 296 297 298 298 299 298 299 298 296 296 295 293 292 292 293 292 292 291 291 291 290 290 290 290 289 288 288 287 283 281 281 281 280 280 280 280
293 293 294 295 295 294 293 294 294 292 292 292 291 290 290 290 289 289 289 290 290 288 286 284 283 283 282 282 281 280 280 279 279 279 279 279 279 280
292 292 292 291 291 291 290 290 289 288 289 288 288 288 287 286 285 285 284 283 282 281 281 281 281 281 281 281 281 281 279 279 278 278 279 279 279 280
290 289 288 288 288 286 287 287 286 286 285 285 285 284 283 282 281 281 280 280 280 280 279 279 279 280 281 280 280 278 278 278 278 278 278 278 279 280
287 285 285 285 284 284 283 282 282 282 281 281 281 280 279 279 279 280 279 279 279 279 278 278 277 277 277 277 277 277 277 277 277 278 277 277 278 280
284 283 282 281 280 280 279 279 279 278 278 278 278 278 278 278 278 277 277 277 277 277 277 277 276 276 276 276 276 276 276 277 277 277 277 277 278 279
281 280 279 278 278 278 277 277 277 277 277 276 277 277 277 276 276 276 276 276 276 276 276 275 276 275 276 276 276 276 276 276 276 276 276 276 277 279
277 277 277 277 277 276 276 276 276 276 276 275 275 275 275 275 275 275 274 275 275 274 274 274 275 275 275 276 275 275 275 275 275 275 275 276 276 278
275 275 275 275 275 275 275 274 274 274 274 274 274 274 274 274 274 274 274 274 274 274 273 273 274 274 274 274 274 274 274 274 274 275 276 277 277 278

GFSNE_850_thetae_111.txt.gz
Theta_e
326 325 326 326 326 322 322 322 320 320 320 318 320 320 319 319 319 319 318 318 318 318 318 317 314 314 314 313 313 313 313 313 313 314 315 315 316 316
323 323 325 326 324 322 321 319 319 318 318 317 318 319 318 319 319 319 318 318 318 318 318 316 315 314 314 315 315 317 317 318 317 316 316 316 316 316
324 325 325 324 325 323 320 319 318 317 318 317 318 319 318 319 319 319 319 319 319 319 319 318 319 318 317 318 318 317 316 316 316 317 317 317 317 317
324 325 325 325 324 323 321 320 319 319 321 320 319 319 319 319 319 319 318 319 319 318 319 318 318 318 318 318 317 317 317 316 317 317 317 317 317 318
324 324 325 324 324 323 321 320 320 320 319 319 318 318 318 317 318 317 318 318 319 318 317 317 318 317 315 316 316 317 317 319 320 320 321 321 320 321
323 324 324 324 324 323 321 322 322 319 320 321 319 320 320 318 319 319 320 319 317 317 318 318 316 315 316 319 320 320 320 320 320 318 319 319 317 317
323 323 324 324 324 323 322 321 320 319 319 319 321 319 318 318 317 317 318 317 319 318 317 317 317 320 320 320 319 319 318 318 317 318 318 317 316 314
323 323 322 323 322 322 321 321 321 320 320 322 320 320 319 319 319 318 318 318 318 317 316 318 319 319 317 317 317 316 316 316 316 315 314 311 309 308
323 322 322 321 321 321 322 322 321 321 321 321 320 320 320 319 318 318 318 318 316 315 316 316 317 313 313 310 311 310 311 309 307 307 307 304 302 302
321 321 321 322 322 321 321 321 320 320 320 319 319 319 318 318 317 316 316 316 315 316 314 313 310 310 306 304 303 302 302 301 300 301 301 300 299 297
319 319 320 319 320 320 320 319 318 319 319 319 319 318 318 318 318 318 317 316 316 314 313 310 307 303 299 298 299 297 297 297 298 298 296 295 293 292
317 316 317 315 317 317 316 316 317 316 318 317 315 314 316 316 315 314 313 311 311 308 307 305 304 301 300 298 296 294 295 295 293 292 291 291 290 290
308 308 309 307 311 309 306 309 309 310 308 308 306 305 306 305 306 307 306 306 304 304 304 301 300 300 297 295 292 291 292 291 290 289 288 285 283 283
303 302 301 302 303 303 302 302 303 301 301 303 302 302 300 301 302 301 301 300 300 299 298 297 296 296 294 292 290 289 289 287 285 282 282 281 281 281
297 298 298 299 299 300 299 299 299 296 297 299 298 297 295 294 292 295 294 292 292 292 291 291 291 291 290 289 289 287 286 282 280 281 280 280 281 281
293 293 294 294 295 296 294 293 293 293 294 294 293 291 289 290 290 291 291 289 287 287 286 286 286 285 286 286 285 282 280 280 280 280 280 279 279 280
291 291 291 291 291 291 290 290 290 289 290 290 290 290 290 289 288 287 287 285 285 283 282 282 282 282 282 281 281 281 281 279 279 279 279 279 279 279
289 289 289 288 288 288 288 288 288 288 288 287 287 286 286 285 285 283 282 281 281 281 280 280 280 280 281 280 280 279 278 278 278 278 278 279 279 279
287 286 286 286 285 285 285 285 285 284 283 283 283 283 282 281 281 281 280 280 279 279 278 278 278 278 278 277 277 277 277 277 277 277 278 277 278 278
283 283 282 281 280 280 279 279 279 279 279 279 279 279 279 279 278 278 278 278 278 277 277 277 277 277 277 277 277 276 276 276 276 276 277 277 277 277
279 279 278 278 278 277 277 277 277 277 277 277 277 277 277 277 277 277 277 276 276 276 276 276 276 276 276 276 276 276 276 276 275 275 275 276 277 277
277 277 276 276 276 276 276 276 276 276 276 276 276 276 276 275 275 275 275 275 275 275 275 275 275 275 275 275 275 275 275 275 274 274 274 275 276 276
275 275 275 275 275 274 274 274 274 274 274 274 274 274 274 274 274 274 274 274 273 273 273 273 273 273 274 274 274 274 273 273 274 274 274 275 276 276

GFSNE_850_thetae_114.txt.gz
Theta_e
324 323 323 324 325 324 326 326 323 322 321 321 322 321 319 319 318 319 320 319 319 318 317 318 318 317 316 317 316 315 314 314 314 314 315 315 314 315
323 323 323 325 325 325 325 326 324 322 321 322 321 319 316 318 320 320 319 319 319 319 319 319 319 318 317 315 314 314 314 314 315 317 317 317 317 316
322 323 323 323 324 323 324 324 323 323 321 321 320 316 316 318 319 319 319 320 320 319 319 319 319 319 318 316 317 317 317 318 317 316 316 316 316 316
325 321 325 323 324 324 323 323 322 322 321 319 319 317 315 316 318 319 319 320 320 320 319 319 320 319 319 319 318 317 317 318 317 317 317 316 317 319
321 322 322 324 323 323 323 323 323 320 319 319 318 318 320 317 319 319 320 318 317 317 318 320 318 318 317 317 317 317 317 316 316 316 317 318 320 318
321 321 323 324 324 324 323 323 322 319 319 319 320 319 319 320 319 319 319 318 317 317 317 319 318 317 317 317 317 315 315 317 319 320 320 319 318 317
320 322 323 323 324 324 323 323 322 321 320 319 319 319 319 318 318 318 318 317 318 318 318 318 318 317 317 316 316 318 319 320 319 317 316 316 316 316
320 321 321 321 322 324 324 323 321 321 320 320 320 320 319 319 318 319 319 319 318 317 318 317 317 317 316 315 317 318 319 317 316 316 315 315 312 310
321 323 323 322 322 322 322 321 321 322 321 321 319 319 319 319 319 320 318 318 317 317 317 317 316 315 314 313 314 315 314 312 311 310 307 306 303 303
322 322 321 322 322 321 321 322 321 321 321 321 320 320 320 320 320 320 320 319 318 318 317 315 314 311 309 305 308 308 307 306 305 302 302 301 299 298
320 321 320 320 320 319 320 321 321 320 320 320 319 319 320 319 319 319 318 317 317 315 314 314 310 304 300 299 299 300 302 301 301 299 298 297 294 293
313 316 315 318 318 319 318 317 317 318 317 316 316 316 317 316 317 316 316 316 316 312 309 306 303 300 297 294 293 295 295 296 294 293 292 292 291 290
301 303 305 306 306 310 311 311 309 311 308 308 306 307 308 309 311 311 310 309 307 306 305 303 301 299 297 294 292 292 292 291 289 290 290 289 287 284
300 299 300 299 301 300 301 302 301 301 301 301 301 300 300 301 300 302 303 302 303 301 300 300 301 298 297 293 292 291 290 288 288 287 284 283 282 282
296 295 295 297 297 296 295 296 297 297 297 297 297 297 297 295 293 294 293 295 296 295 294 294 294 294 294 293 292 289 288 287 283 282 281 281 282 281
293 294 294 294 295 293 292 293 293 294 295 294 293 292 292 291 292 290 290 289 291 292 291 291 290 290 290 290 288 287 283 280 280 280 280 279 280 280
290 291 292 292 292 291 291 291 290 290 291 290 290 289 288 288 288 286 286 287 286 285 284 284 284 283 282 282 281 281 280 280 280 279 279 279 279 279
289 290 289 289 289 288 288 287 287 287 287 286 286 286 286 287 287 287 285 283 282 281 280 280 281 281 281 280 279 279 278 278 278 278 278 279 279 278
286 285 285 285 284 284 284 284 285 284 284 284 284 284 283 282 281 280 280 279 279 279 278 278 278 278 279 278 278 277 277 277 277 277 277 278 278 278
283 282 281 280 280 280 279 279 279 279 279 279 279 279 279 279 279 279 279 278 278 278 278 278 278 277 277 277 277 276 276 277 277 277 277 277 277 277
279 278 278 278 278 278 277 277 277 277 277 277 277 277 277 277 277 277 277 277 277 277 276 276 276 276 276 276 276 276 276 275 275 275 275 276 277 277
276 276 276 276 276 276 276 276 276 276 276 276 276 276 276 276 276 275 275 275 275 275 275 275 275 275 275 275 275 275 275 274 274 274 274 274 275 276
274 274 274 274 274 274 274 274 274 274 274 274 274 274 274 274 274 274 274 274 273 273 273 273 273 273 274 274 273 273 273 273 274 274 273 274 274 274

GFSNE_850_thetae_117.txt.gz
Theta_e
328 327 327 325 324 323 323 323 324 323 322 323 324 324 323 318 319 319 319 319 318 318 317 316 315 316 318 318 318 318 317 316 315 314 314 314 316 315
328 328 326 325 323 323 323 325 324 325 323 323 324 323 323 319 319 319 319 318 319 319 319 317 316 317 318 318 318 318 318 317 317 316 315 315 315 317
327 327 326 324 322 323 323 323 323 324 323 322 322 323 322 321 322 320 319 319 319 320 320 319 319 318 319 319 319 318 316 315 315 315 315 316 317 317
327 326 325 323 322 322 322 322 324 323 323 322 322 322 321 322 318 317 319 320 320 320 320 319 319 319 319 319 318 317 316 316 317 317 318 318 318 318
327 325 324 323 322 322 322 324 323 324 322 322 322 322 321 319 315 314 318 319 319 319 320 320 319 319 319 320 319 319 319 318 317 318 318 317 316 317
326 324 323 322 321 322 323 323 323 323 322 322 320 321 320 319 318 316 316 319 319 319 319 319 318 319 319 319 319 318 318 317 317 316 315 315 319 319
324 322 321 321 321 322 323 324 323 322 321 321 319 319 319 318 318 318 316 318 319 319 318 317 317 316 317 318 318 317 316 316 316 315 318 319 318 316
322 321 320 321 321 321 322 323 323 322 322 322 319 319 319 318 319 319 318 319 319 318 317 317 317 317 317 318 317 317 317 316 316 318 318 317 316 315
321 320 320 321 320 321 321 321 322 322 322 321 320 319 319 318 318 319 318 319 318 317 317 318 317 316 315 316 316 316 316 315 314 313 312 311 310 308
321 320 320 320 321 322 322 322 321 320 321 320 320 320 319 319 319 319 318 318 318 318 318 315 314 314 311 310 310 312 313 310 305 304 305 305 304 303
313 316 319 319 320 321 321 321 321 320 320 319 319 320 320 320 320 319 319 318 318 317 316 314 312 307 302 301 301 302 302 300 300 299 300 300 298 296
307 306 310 317 316 317 318 318 318 317 319 320 318 320 319 318 319 318 317 317 317 313 309 306 308 302 294 293 295 296 296 296 296 297 298 295 293 291
303 303 304 302 305 307 308 310 308 310 309 309 311 311 313 313 313 314 313 312 311 311 309 305 302 298 299 292 290 292 292 293 293 291 289 289 289 287
298 298 298 299 300 300 301 301 301 301 301 300 301 301 302 304 305 305 305 306 305 305 303 301 301 298 297 293 289 288 289 290 289 287 286 284 283 283
294 293 294 296 296 296 296 296 296 297 297 297 297 295 293 295 296 296 296 297 299 298 296 297 298 295 294 294 292 288 289 287 286 284 282 282 282 281
292 293 293 293 294 294 294 294 294 294 294 294 294 293 291 291 293 293 294 293 295 294 293 292 293 292 293 292 290 289 287 285 282 282 282 281 281 281
290 291 292 292 291 291 291 291 290 290 291 290 290 290 290 290 291 290 290 289 291 289 288 288 288 289 289 288 287 284 281 281 281 280 280 280 279 280
289 290 289 289 289 288 288 288 288 288 287 287 287 287 287 287 287 288 287 287 287 286 285 283 283 282 282 281 281 280 280 279 279 279 279 279 279 279
286 285 285 285 284 284 285 285 285 285 285 285 285 285 284 284 281 280 279 279 279 279 279 280 280 280 280 280 278 278 278 278 278 278 278 278 278 278
282 281 280 280 280 279 279 279 279 279 279 280 279 279 279 279 279 279 279 279 279 278 278 278 278 278 279 278 277 277 277 277 277 277 277 277 277 277
278 278 278 277 277 277 277 277 277 278 278 278 278 278 278 278 278 277 277 277 277 277 277 277 277 277 277 277 277 276 276 276 275 275 276 276 277 277
276 276 276 276 276 276 276 276 276 276 276 276 276 276 276 276 276 276 276 276 276 276 276 276 276 276 276 276 276 275 275 274 274 274 274 275 275 276
274 274 274 274 275 275 274 274 275 275 275 275 275 275 275 275 275 275 275 275 274 274 274 274 274 274 274 274 274 274 274 274 274 273 273 274 274 274

GFSNE_850_thetae_123.txt.gz
Theta_e
332 332 332 331 330 330 329 329 328 329 329 328 325 325 325 323 323 324 323 325 324 320 317 319 318 318 317 316 316 318 317 317 316 317 316 316 316 316
333 333 332 331 330 330 329 329 329 328 328 327 326 326 324 324 323 324 324 324 324 321 317 317 317 317 317 317 316 316 316 315 317 317 317 317 318 317
330 327 326 328 331 329 329 329 329 328 328 325 326 324 323 324 325 324 324 324 324 324 321 317 317 316 317 317 318 317 316 315 314 315 316 316 316 315
328 324 324 324 328 330 331 330 329 328 328 325 325 324 324 324 323 324 324 324 323 324 322 318 316 317 317 317 317 317 317 316 316 317 318 318 318 317
329 329 329 330 331 331 331 331 328 328 328 325 324 324 324 324 324 323 323 322 323 322 320 320 319 318 318 318 318 318 317 316 317 318 318 318 318 315
328 328 329 330 330 329 330 330 328 327 326 325 326 323 323 324 324 323 322 322 321 321 320 320 320 319 319 319 319 319 317 317 318 318 318 318 318 315
327 326 326 327 327 328 328 328 327 326 325 324 322 323 324 323 323 322 321 321 321 321 321 320 319 319 319 320 320 319 319 319 319 319 319 318 318 315
324 323 324 324 325 325 325 325 323 320 323 322 322 322 323 322 322 322 321 320 319 320 320 319 318 320 319 319 320 320 319 319 319 319 318 318 318 318
317 318 320 322 323 323 324 322 322 322 321 322 322 322 322 322 322 321 320 320 320 320 320 318 317 317 316 317 319 319 320 319 319 319 319 319 318 318
308 309 314 316 317 321 321 321 321 321 321 322 322 321 321 322 321 321 321 319 318 318 318 317 317 315 315 313 315 318 318 317 317 317 317 316 315 312
304 305 306 308 310 312 313 314 316 317 320 321 321 321 321 320 320 320 319 318 317 318 318 317 315 312 311 308 312 313 314 314 315 313 312 308 305 303
300 301 302 303 304 307 309 309 308 307 307 315 311 313 318 318 319 319 319 318 318 318 317 315 314 312 303 303 305 302 306 303 302 302 302 300 298 298
296 297 297 297 299 301 301 304 303 302 303 305 305 304 306 311 312 315 315 316 315 317 317 315 314 309 307 303 296 294 295 295 295 296 296 295 294 294
293 293 293 294 296 297 298 297 297 297 298 300 301 301 301 304 303 306 305 308 308 309 310 309 307 307 304 298 293 289 289 290 291 292 292 292 292 291
290 290 291 292 292 294 294 294 295 295 295 297 296 295 295 294 297 299 300 299 300 301 301 299 300 301 299 299 294 287 285 286 287 288 288 289 290 289
289 290 290 290 290 290 291 292 291 291 291 290 290 291 291 292 293 293 294 295 296 296 295 295 295 296 294 294 293 287 287 287 285 285 285 284 284 285
286 287 288 289 289 289 288 289 289 288 289 288 288 289 289 290 291 290 291 291 292 290 289 289 291 292 292 290 288 286 285 286 285 286 285 283 282 281
284 283 283 283 283 283 283 284 286 286 285 285 286 287 287 288 288 288 289 288 287 287 287 287 288 288 287 285 285 285 285 285 284 284 283 283 282 282
281 281 281 280 281 281 281 281 281 281 282 283 283 283 283 284 285 286 286 286 286 285 285 285 285 286 285 284 282 283 283 283 283 281 280 281 282 282
279 279 279 279 279 279 279 278 279 279 279 280 280 280 280 281 281 281 281 281 282 283 284 284 283 284 284 284 282 281 281 280 280 280 280 279 280 280
277 277 276 276 276 276 276 277 277 277 277 278 279 279 279 280 279 279 279 279 280 280 279 279 281 282 283 281 280 279 278 278 278 279 279 279 281 281
274 274 274 273 273 274 275 275 276 276 277 277 277 278 278 279 278 278 279 279 279 278 278 278 278 279 280 282 280 278 277 276 276 276 276 277 280 281
272 272 272 271 271 271 272 273 273 274 274 275 275 276 276 277 277 277 277 277 277 278 278 278 278 278 279 279 279 278 276 276 276 276 277 276 276 276

GFSNE_850_thetae_129.txt.gz
Theta_e
333 332 332 332 331 330 330 331 330 330 329 329 329 329 328 328 328 326 324 323 324 323 324 324 324 322 321 319 320 320 318 317 316 316 316 314 314 315
333 332 332 331 330 330 331 331 327 325 327 326 328 327 327 327 328 327 326 324 323 323 323 324 324 324 323 321 320 320 319 319 319 317 316 316 316 315
331 332 331 330 330 330 328 325 324 324 322 323 326 324 328 328 327 327 327 325 324 323 323 324 324 323 325 323 321 319 318 318 320 319 318 316 316 316
332 332 332 333 332 331 328 327 326 323 324 324 325 325 325 328 328 327 327 326 324 323 323 323 324 324 324 325 323 320 319 319 318 319 318 317 317 316
329 329 329 330 329 330 330 329 327 325 325 327 326 326 327 327 328 327 327 326 324 323 321 322 323 323 324 324 324 322 317 319 318 318 317 316 316 318
326 326 325 327 327 327 327 327 328 328 327 327 327 327 330 328 326 326 324 326 323 323 322 323 323 323 323 323 323 323 319 319 319 318 317 317 317 316
320 320 320 322 322 324 324 324 325 325 326 328 327 328 327 327 326 325 323 325 323 323 322 322 321 321 322 322 322 322 322 318 319 319 317 317 317 318
315 314 313 314 316 317 320 320 323 323 325 325 324 325 326 326 325 324 324 323 321 321 322 322 322 321 322 321 321 322 321 321 317 319 318 317 317 318
307 308 309 310 312 312 312 313 314 316 319 321 322 321 323 323 323 322 321 321 320 320 322 322 322 321 321 321 322 321 321 320 317 316 317 317 317 316
301 302 302 303 304 306 307 308 309 310 312 312 314 313 317 318 318 319 320 319 320 320 321 321 321 320 319 320 320 320 321 319 318 318 317 317 317 318
297 297 299 299 300 301 302 303 304 304 304 305 306 306 308 310 310 316 315 318 317 316 321 321 320 320 320 319 317 317 318 319 319 319 318 318 318 318
295 296 296 296 296 298 299 300 300 300 300 301 301 302 302 304 305 309 309 310 311 311 315 316 319 319 315 314 314 313 314 316 316 317 317 318 316 317
291 292 293 293 293 294 295 295 295 295 297 297 298 298 299 300 301 303 303 305 306 305 307 310 310 312 311 311 307 307 307 307 310 311 312 309 308 308
287 288 289 290 291 291 292 292 293 293 294 295 295 296 296 295 296 297 297 298 300 302 303 304 304 305 305 304 304 301 297 297 298 300 300 299 298 298
284 284 285 285 288 290 289 290 291 291 291 292 292 291 291 292 293 294 295 295 296 298 300 300 299 299 300 300 301 298 295 291 291 293 294 295 295 295
282 282 283 283 284 285 287 287 287 287 287 288 288 288 289 290 291 292 293 294 294 295 295 296 296 296 296 296 296 297 293 292 289 290 291 292 292 292
280 281 282 282 283 283 283 283 284 285 286 285 285 286 287 287 288 288 289 290 290 290 291 292 292 293 293 293 292 290 288 289 288 287 287 287 286 287
279 279 278 278 279 279 279 279 280 280 281 281 282 283 284 285 286 286 287 287 287 286 286 286 287 288 288 287 287 286 286 287 285 285 285 285 284 284
277 276 276 276 276 276 277 277 277 278 279 279 279 280 281 281 283 284 284 284 285 285 285 285 286 287 287 284 282 284 285 284 283 283 283 284 284 283
274 274 274 273 273 274 275 275 276 277 277 278 278 279 279 279 280 281 281 282 283 283 284 285 285 285 286 284 282 282 282 283 283 283 282 283 283 282
272 272 271 271 272 272 273 274 274 275 275 276 277 278 278 278 278 279 279 280 280 280 281 283 283 283 284 283 283 281 281 282 282 282 282 282 282 282
270 270 270 270 270 270 271 271 272 273 274 275 276 276 277 277 277 278 278 278 278 278 279 280 280 281 281 282 282 281 281 281 281 281 280 280 280 280
270 270 269 269 269 269 270 270 270 271 272 273 274 275 275 276 276 276 277 277 278 278 278 278 279 280 280 279 279 278 277 276 276 276 278 279 280 280

GFSNE_850_thetae_132.txt.gz
Theta_e
330 329 331 330 331 331 332 332 330 331 330 329 329 326 327 327 327 328 327 327 324 323 324 324 324 325 325 324 322 321 321 320 317 317 317 315 313 312
329 330 329 329 330 330 329 329 330 330 330 327 323 321 324 327 327 327 327 327 326 325 323 323 324 324 324 325 324 322 320 321 320 318 317 316 316 315
330 329 329 329 329 330 329 330 330 329 329 324 323 323 322 325 324 322 324 327 327 327 324 323 323 323 323 324 325 323 322 321 320 320 318 318 317 316
330 330 330 330 330 330 329 330 329 326 326 323 325 323 323 324 324 324 324 326 327 326 327 325 323 323 323 323 324 324 324 322 321 321 319 319 319 317
329 327 329 329 330 330 330 330 328 328 327 326 325 325 325 325 326 326 325 326 326 325 326 326 325 323 323 323 324 323 323 323 322 320 320 319 319 319
323 324 322 327 327 325 327 328 326 326 327 326 327 327 326 326 326 326 327 328 326 325 324 323 325 323 322 322 322 323 323 324 323 322 318 319 319 319
314 316 312 313 321 318 320 322 324 325 325 324 325 325 325 324 324 325 325 326 326 325 325 325 323 322 322 322 322 322 323 323 323 323 322 316 319 319
306 305 311 311 314 314 316 318 317 320 320 320 321 322 322 323 323 324 325 326 324 325 323 323 322 322 322 322 321 321 322 322 322 323 322 320 317 319
304 303 306 307 306 307 307 310 311 312 313 313 314 315 317 317 320 321 323 322 323 323 322 321 320 320 320 321 320 321 321 321 322 322 322 322 318 318
299 299 299 299 301 301 302 304 305 306 307 307 309 309 309 311 311 315 317 319 319 320 320 319 320 319 319 321 321 320 320 321 321 321 321 321 320 318
294 296 298 298 298 298 300 300 300 301 301 302 303 303 304 304 305 307 309 311 314 315 316 316 317 318 319 320 319 320 320 319 319 319 319 321 319 318
291 292 293 293 294 295 296 297 297 297 297 297 298 298 299 301 302 303 304 305 306 307 308 309 312 312 314 316 318 319 318 319 318 317 318 319 319 318
288 288 287 288 291 292 293 294 293 293 294 294 295 296 296 297 298 299 300 301 302 301 302 302 304 306 306 309 311 311 313 312 314 313 313 314 315 314
284 284 285 286 288 289 290 290 290 291 292 293 293 294 294 295 295 295 296 296 296 297 299 299 299 300 301 302 303 304 303 301 300 303 302 304 304 304
282 282 282 283 285 286 287 287 288 289 289 290 290 290 290 290 291 291 293 294 294 295 296 297 297 297 297 297 297 299 300 297 296 294 296 296 297 296
280 281 281 281 281 282 283 283 284 284 284 285 286 286 287 289 290 291 291 292 293 293 294 295 295 295 294 295 295 295 295 294 292 292 293 293 293 293
278 279 279 280 280 280 280 279 280 281 281 282 283 284 285 286 287 287 288 289 290 290 291 291 292 292 292 292 292 291 289 289 290 289 290 290 290 290
277 277 277 276 276 276 276 277 277 278 278 279 279 280 281 282 283 284 285 286 286 287 287 287 287 288 288 288 287 286 286 287 286 286 287 287 286 286
275 275 275 274 274 274 274 275 275 276 276 277 278 278 279 279 280 281 282 283 284 284 285 286 287 287 287 287 284 284 285 285 285 284 284 285 285 284
273 272 272 272 272 272 272 272 273 274 275 275 276 277 277 278 278 279 279 280 281 282 283 284 285 285 285 285 284 283 282 283 283 283 283 283 283 283
271 271 271 270 270 270 271 271 271 272 273 273 274 275 276 277 277 278 278 279 279 279 280 282 283 283 284 283 283 282 282 282 282 283 283 282 282 282
271 270 270 270 269 269 270 270 270 270 272 272 273 274 275 275 276 276 277 277 278 278 279 280 281 281 281 282 282 282 281 281 281 281 282 282 282 281
271 270 270 269 268 268 268 269 269 269 270 270 271 272 273 274 274 275 275 276 277 278 278 278 279 280 280 281 281 280 280 280 280 280 280 280 280 281